Hourly Weather Roundup
Issued by NWS Central Illinois

Home | Current Version | Previous Version | Text Only | Print | Product List | Glossary On
Versions: 1 2 3 4 5 6 7 8 9 10 11 12 13 14 15 16 17 18 19 20 21 22 23 24 25 26 27 28 29 30 31 32 33 34 35 36 37 38 39 40 41 42 43 44 45 46 47 48 49 50
153
NZUS43 KILX 290810
HWRILX

AREA WEATHER ROUNDUP
NATIONAL WEATHER SERVICE, LINCOLN IL
300 AM CDT WED MAR 29 2017


CITY           SKY/WX    TMP DP  RH WIND       PRES   REMARKS
BLOOMINGTON    CLOUDY    42  41  96 NE10      30.16R FOG
CHAMPAIGN      CLOUDY    45  41  86 NE12      30.13F
DECATUR        CLOUDY    44  40  85 E8        30.15R
EFFINGHAM      PTCLDY    44  43  94 N3        30.14R
FLORA          PTCLDY    48  45  88 NE5       30.10S
GALESBURG      CLOUDY    41  38  91 E10       30.15S WCI  34
JACKSONVILLE   CLOUDY    46  42  86 NE10      30.12F
LACON          CLOUDY    42  40  95 E7        30.16F
LAWRENCEVILLE  CLEAR     48  46  93 NE10      30.10F
LITCHFIELD     CLOUDY    46  42  87 NE10      30.10F
$$


CITY           SKY/WX    TMP DP  RH WIND       PRES   REMARKS
LINCOLN        CLOUDY    44  42  95 NE6       30.16R
MACOMB         CLOUDY    40  39  97 E7        30.16F WCI  35
MATTOON        PTCLDY    40  40 100 N3        30.12R FOG
MT CARMEL AP   CLEAR     49  45  87 NE9       30.10S
OLNEY-NOBLE AP CLEAR     45  45 100 NE6       30.11R
PARIS          CLOUDY    46  44  90 NE5       30.13F
PEORIA         CLOUDY    43  40  89 E6        30.16S
PONTIAC        CLOUDY    44  43  97 NE12      30.18S
RANTOUL        CLOUDY    46  44  94 NE10      30.14F FOG
SPRINGFIELD    CLOUDY    44  40  85 NE8       30.14F
TAYLORVILLE    CLOUDY    43  41  93 E9        30.13S
$$

...REGIONAL REPORTS...


CITY           SKY/WX    TMP DP  RH WIND       PRES   REMARKS
CHICAGO O`HARE FOG       36  34  92 NE9       30.21F VSB 3/4 WCI  29
KANKAKEE       CLOUDY    42  40  91 NE8       30.19R
MOLINE         CLOUDY    41  37  86 E14       30.16F WCI  33
MOUNT STERLING CLOUDY    46  42  88 E10       30.11F
MOUNT VERNON   PTCLDY    49  46  90 NE12      30.08F
PITTSFIELD     CLOUDY    48  45  88 NE9       30.11F
QUINCY         CLOUDY    47  43  86 E12       30.09F
ROCKFORD       MOCLDY    37  35  92 E7        30.24R FOG     WCI  32
$$


CITY           SKY/WX    TMP DP  RH WIND       PRES   REMARKS
BURLINGTON     MOCLDY    43  40  89 E8        30.13F
CEDAR RAPIDS   MOCLDY    40  39  97 E8        30.13F WCI  34
DES MOINES     CLOUDY    48  42  80 E9        30.10F
KIRKSVILLE     CLOUDY    48  45  89 E12       30.05F
OTTUMWA        MOCLDY    44  42  93 E12       30.10F
ST LOUIS       CLOUDY    53  45  74 E12       30.08F
$$


CITY           SKY/WX    TMP DP  RH WIND       PRES   REMARKS
TERRE HAUTE    CLOUDY    49  43  80 NE8       30.12F
EVANSVILLE     CLOUDY    51  48  89 N7        30.09R
INDIANAPOLIS   CLOUDY    49  46  90 NE12      30.13S
LAFAYETTE      CLOUDY    46  44  93 NE9       30.15F
MADISON        CLEAR     34  32  92 CALM      30.23R
MILWAUKEE      FOG       34  32  92 CALM      30.23S VSB 1/4
$$






USA.gov is the U.S. government's official web portal to all federal, state and local government web resources and services.